User: anonymous   Login
Location: Unspecified
(0.0000°N, 0.0000°E)
Time: 06:52:31
(UTC+00:00)
Language:

STARLINK-11420 [DTC] - Orbit

View from above orbital plane
View from above orbital plane
View from above satellite
View from above satellite

Ground track
Ground track

The orbit is defined by the following mean orbital elements,

1 62591U          26145.37676992 +.00000000 +00000-0 +19565-2 0 00001
2 62591  43.0009  24.0541 0000586  17.9157 342.1732 15.70908466    04
Epoch (UTC): 25 May 2026 09:02:32
Eccentricity: 0.0000586
inclination: 43.0009°
perigee height: 356 km
apogee height: 357 km
right ascension of ascending node: 24.0541°
argument of perigee: 17.9157°
revolutions per day: 15.70908466
mean anomaly at epoch: 342.1732°

The dashed part of the orbit path shows where the satellite is in the earth's shadow,  

DLR